Temp
-14 -14 -14 -14 -13 -13 -13 -13 -12 -12 -12 -12 -12 -11 -11 -11 -12 -12 -12 -12 -12 -12 -12 -13 -12 -12 -12 -11 -12 -11 -12 -13 -13 -13 -13 -13 -13 -13 -13 -13 -13 -13 -13 -12 -12 -11 -12
-14 -14 -14 -14 -14 -13 -13 -13 -13 -12 -12 -12 -12 -12 -11 -12 -12 -12 -12 -12 -12 -13 -12 -12 -13 -12 -12 -12 -13 -12 -13 -13 -13 -14 -13 -13 -13 -14 -13 -14 -14 -13 -13 -13 -12 -12 -12
-14 -14 -14 -14 -14 -14 -13 -13 -13 -12 -12 -13 -13 -12 -12 -12 -12 -12 -13 -13 -13 -13 -13 -13 -13 -12 -12 -14 -13 -14 -14 -14 -14 -14 -14 -14 -14 -14 -14 -14 -14 -14 -13 -13 -12 -12 -12
-15 -14 -14 -14 -14 -14 -14 -13 -13 -13 -13 -13 -13 -13 -13 -12 -12 -13 -13 -13 -13 -13 -13 -13 -13 -13 -12 -14 -15 -15 -15 -15 -15 -15 -15 -15 -15 -14 -14 -14 -14 -14 -14 -13 -12 -12 -12
-15 -15 -15 -14 -14 -14 -14 -14 -13 -13 -13 -13 -13 -13 -13 -13 -13 -13 -13 -14 -14 -14 -13 -13 -13 -14 -13 -16 -16 -16 -16 -16 -16 -16 -16 -16 -16 -16 -14 -14 -15 -15 -14 -13 -12 -13 -12
-15 -15 -15 -15 -15 -14 -14 -14 -14 -13 -13 -13 -14 -14 -14 -13 -13 -14 -13 -14 -14 -14 -14 -14 -14 -14 -15 -16 -17 -17 -17 -17 -18 -19 -20 -21 -20 -20 -17 -17 -15 -13 -13 -13 -13 -13 -12
-15 -15 -15 -15 -15 -15 -15 -14 -14 -14 -14 -13 -14 -14 -14 -14 -13 -14 -14 -14 -14 -14 -14 -14 -14 -15 -15 -16 -17 -18 -18 -19 -20 -21 -21 -21 -21 -21 -19 -16 -14 -14 -14 -13 -13 -13 -12
-14 -15 -15 -16 -16 -16 -15 -15 -14 -14 -14 -14 -14 -14 -14 -14 -14 -14 -14 -15 -15 -14 -14 -14 -15 -16 -16 -17 -18 -18 -19 -20 -21 -21 -21 -21 -19 -20 -18 -15 -16 -15 -14 -14 -13 -13 -12
-15 -15 -15 -15 -16 -16 -16 -15 -15 -15 -14 -14 -14 -14 -14 -14 -14 -14 -14 -15 -15 -15 -14 -13 -16 -16 -17 -18 -18 -19 -20 -21 -21 -21 -21 -20 -19 -19 -17 -16 -16 -15 -14 -14 -13 -13 -13
-17 -16 -16 -16 -17 -17 -16 -16 -15 -15 -15 -14 -14 -14 -14 -14 -14 -14 -15 -15 -15 -15 -14 -14 -15 -16 -17 -18 -19 -20 -21 -22 -21 -20 -21 -20 -19 -18 -17 -15 -15 -15 -14 -14 -14 -13 -13
-18 -19 -19 -18 -19 -18 -17 -17 -16 -16 -15 -15 -14 -14 -15 -15 -14 -14 -15 -15 -16 -16 -15 -15 -16 -17 -18 -18 -19 -21 -22 -21 -21 -20 -20 -19 -18 -17 -16 -15 -15 -15 -14 -14 -13 -14 -13
-19 -19 -18 -18 -19 -18 -18 -17 -16 -16 -15 -15 -15 -15 -15 -15 -14 -14 -15 -16 -16 -16 -15 -16 -16 -17 -18 -19 -20 -21 -21 -21 -21 -21 -20 -19 -18 -18 -16 -15 -15 -15 -14 -14 -14 -14 -13
-21 -20 -19 -19 -19 -19 -18 -18 -17 -16 -16 -15 -15 -15 -15 -15 -14 -15 -15 -16 -16 -15 -15 -16 -17 -18 -19 -19 -20 -21 -21 -21 -20 -21 -20 -18 -17 -17 -16 -15 -15 -15 -14 -14 -14 -14 -13
-22 -20 -20 -19 -18 -18 -18 -18 -18 -17 -16 -16 -15 -15 -15 -15 -14 -15 -15 -15 -15 -15 -15 -16 -17 -18 -19 -20 -21 -21 -21 -21 -20 -20 -19 -17 -16 -16 -16 -15 -15 -14 -14 -14 -14 -13 -13
-22 -21 -20 -20 -19 -18 -18 -18 -18 -17 -16 -16 -16 -15 -15 -15 -15 -15 -15 -15 -16 -15 -16 -17 -18 -18 -19 -20 -21 -21 -21 -20 -19 -19 -19 -16 -16 -16 -15 -15 -15 -15 -14 -14 -14 -13 -13
-22 -22 -20 -20 -19 -19 -19 -18 -18 -17 -17 -16 -16 -15 -15 -15 -15 -15 -15 -15 -15 -16 -16 -17 -17 -18 -19 -19 -20 -20 -20 -19 -19 -19 -18 -17 -16 -15 -15 -14 -14 -14 -14 -14 -14 -13 -13
-23 -22 -21 -20 -20 -19 -19 -18 -18 -18 -17 -16 -16 -15 -15 -15 -15 -15 -15 -15 -15 -15 -16 -16 -17 -18 -19 -20 -20 -20 -19 -18 -19 -18 -18 -17 -16 -15 -15 -15 -15 -14 -14 -14 -14 -13 -13
-23 -22 -22 -20 -20 -19 -19 -19 -19 -18 -17 -16 -16 -15 -16 -15 -15 -15 -15 -15 -15 -15 -16 -16 -17 -17 -19 -19 -19 -19 -19 -18 -18 -18 -17 -16 -15 -15 -15 -15 -15 -15 -14 -14 -14 -13 -13
-23 -22 -21 -20 -20 -20 -19 -19 -20 -18 -17 -17 -16 -16 -15 -15 -15 -15 -15 -15 -15 -15 -16 -16 -16 -17 -18 -18 -18 -18 -18 -18 -16 -16 -16 -16 -15 -15 -15 -15 -15 -15 -14 -14 -14 -13 -13
-22 -21 -20 -20 -20 -20 -19 -20 -20 -18 -17 -17 -16 -16 -15 -15 -16 -15 -14 -15 -15 -15 -15 -16 -16 -17 -17 -17 -18 -18 -18 -17 -16 -16 -16 -15 -15 -15 -15 -14 -14 -14 -14 -14 -14 -13 -13
-22 -21 -20 -21 -20 -20 -19 -19 -19 -19 -17 -17 -16 -16 -15 -16 -15 -15 -14 -15 -15 -15 -16 -16 -16 -17 -17 -17 -17 -17 -17 -17 -16 -16 -16 -15 -15 -15 -15 -14 -15 -15 -15 -14 -13 -14 -13
-22 -21 -21 -20 -20 -20 -19 -19 -19 -19 -18 -17 -16 -16 -16 -16 -15 -15 -15 -15 -15 -15 -15 -16 -17 -17 -17 -16 -17 -16 -16 -16 -15 -15 -15 -15 -15 -14 -14 -15 -15 -15 -15 -14 -14 -13 -13
-23 -22 -21 -20 -20 -20 -19 -20 -20 -19 -17 -17 -17 -16 -16 -16 -15 -15 -15 -15 -15 -15 -15 -16 -17 -17 -17 -16 -17 -17 -17 -17 -17 -16 -16 -16 -15 -15 -15 -15 -15 -15 -14 -14 -14 -14 -13
-22 -21 -20 -20 -20 -20 -19 -19 -19 -19 -18 -17 -17 -16 -16 -16 -15 -15 -15 -15 -15 -15 -15 -16 -17 -17 -17 -16 -16 -16 -16 -16 -17 -16 -16 -15 -16 -15 -15 -14 -14 -14 -14 -14 -14 -13 -13
-21 -20 -20 -20 -20 -20 -19 -18 -18 -18 -18 -17 -17 -16 -16 -16 -15 -15 -15 -15 -15 -15 -16 -16 -16 -16 -16 -17 -17 -16 -16 -16 -16 -16 -15 -15 -15 -15 -15 -14 -14 -14 -14 -14 -14 -14 -14
-21 -21 -20 -20 -20 -20 -20 -19 -19 -18 -18 -17 -17 -16 -16 -16 -15 -16 -15 -15 -15 -15 -15 -15 -15 -17 -17 -16 -17 -16 -16 -15 -16 -15 -15 -15 -15 -15 -14 -14 -14 -15 -14 -14 -13 -14 -14
-21 -20 -20 -20 -20 -20 -20 -19 -19 -19 -18 -17 -17 -17 -16 -16 -15 -16 -16 -16 -15 -15 -15 -15 -15 -15 -15 -16 -17 -16 -16 -16 -15 -15 -15 -15 -15 -15 -14 -14 -14 -15 -14 -14 -14 -14 -14
-21 -20 -20 -20 -20 -20 -19 -18 -18 -19 -18 -17 -17 -17 -17 -16 -16 -16 -16 -15 -15 -15 -15 -15 -15 -15 -15 -15 -16 -15 -16 -15 -15 -15 -15 -15 -15 -15 -14 -14 -14 -15 -15 -15 -15 -15 -15
-21 -20 -20 -20 -20 -20 -20 -19 -19 -19 -18 -17 -17 -17 -17 -16 -16 -16 -16 -15 -15 -15 -14 -14 -15 -15 -15 -15 -15 -15 -15 -15 -15 -15 -15 -15 -15 -15 -14 -15 -15 -15 -15 -16 -15 -15 -15
Height
5727 5728 5729 5730 5730 5730 5729 5727 5727 5726 5725 5723 5721 5719 5716 5713 5710 5708 5706 5704 5703 5701 5701 5700 5699 5700 5700 5700 5701 5703 5703 5704 5705 5709 5714 5718 5724 5725 5732 5737 5740 5744 5755 5762 5765 5767 5770
5718 5719 5721 5722 5723 5723 5723 5721 5720 5719 5717 5716 5714 5711 5708 5706 5703 5700 5697 5696 5694 5693 5693 5691 5691 5691 5690 5690 5689 5687 5688 5690 5692 5696 5700 5706 5712 5715 5719 5724 5730 5737 5748 5752 5757 5759 5763
5711 5711 5711 5712 5714 5715 5715 5714 5713 5711 5710 5708 5706 5704 5701 5698 5695 5692 5690 5688 5687 5686 5684 5683 5682 5680 5679 5678 5675 5672 5672 5674 5676 5678 5686 5691 5697 5700 5711 5715 5723 5728 5737 5742 5746 5752 5757
5703 5702 5702 5702 5703 5705 5706 5706 5705 5704 5702 5701 5699 5697 5693 5690 5688 5685 5682 5680 5679 5678 5676 5673 5670 5667 5666 5663 5659 5659 5658 5658 5661 5665 5667 5670 5679 5685 5693 5704 5712 5718 5726 5731 5739 5746 5753
5691 5691 5691 5691 5692 5693 5695 5696 5696 5696 5695 5692 5692 5689 5686 5683 5679 5677 5674 5672 5670 5668 5665 5663 5659 5656 5654 5650 5645 5643 5645 5645 5643 5643 5642 5642 5648 5657 5675 5689 5699 5705 5713 5724 5731 5739 5747
5679 5679 5679 5679 5680 5681 5682 5685 5686 5687 5687 5685 5683 5681 5679 5675 5672 5669 5666 5664 5661 5659 5657 5651 5646 5645 5641 5634 5631 5630 5629 5627 5625 5620 5620 5622 5626 5633 5651 5669 5682 5698 5708 5715 5726 5735 5740
5666 5665 5663 5665 5667 5669 5671 5672 5675 5676 5677 5676 5674 5673 5671 5667 5664 5661 5657 5655 5653 5650 5646 5640 5635 5630 5625 5622 5619 5617 5614 5612 5608 5605 5611 5610 5611 5615 5637 5660 5685 5692 5701 5711 5723 5731 5732
5648 5648 5649 5649 5652 5655 5658 5660 5662 5665 5667 5666 5666 5664 5664 5660 5656 5652 5649 5645 5643 5639 5632 5628 5623 5617 5612 5609 5607 5605 5602 5599 5597 5601 5602 5603 5605 5624 5645 5656 5671 5681 5695 5709 5717 5721 5726
5629 5629 5630 5632 5634 5639 5644 5647 5650 5653 5656 5656 5657 5656 5655 5652 5648 5644 5641 5637 5634 5629 5621 5617 5612 5606 5601 5599 5597 5593 5589 5588 5591 5593 5595 5600 5612 5622 5637 5652 5666 5678 5691 5703 5709 5714 5723
5603 5606 5609 5612 5617 5623 5629 5634 5638 5641 5645 5647 5647 5647 5646 5644 5642 5636 5633 5629 5626 5621 5611 5608 5603 5596 5593 5590 5587 5581 5581 5584 5587 5589 5594 5594 5605 5615 5634 5642 5659 5674 5686 5695 5701 5711 5717
5579 5582 5589 5592 5599 5606 5613 5620 5625 5630 5633 5637 5638 5638 5638 5636 5633 5630 5628 5622 5617 5611 5602 5597 5593 5588 5585 5583 5578 5577 5576 5578 5583 5583 5590 5599 5607 5611 5630 5646 5658 5671 5683 5690 5698 5705 5708
5554 5564 5571 5573 5581 5591 5597 5606 5613 5618 5623 5627 5628 5629 5630 5628 5625 5623 5619 5615 5610 5604 5593 5589 5585 5580 5578 5574 5571 5571 5573 5577 5578 5580 5588 5593 5603 5613 5626 5638 5656 5667 5677 5684 5690 5697 5703
5534 5543 5552 5557 5565 5575 5584 5592 5600 5606 5612 5616 5620 5621 5621 5620 5618 5615 5611 5606 5603 5595 5591 5584 5579 5575 5571 5567 5566 5567 5570 5574 5576 5580 5587 5594 5604 5617 5625 5637 5649 5660 5666 5676 5685 5689 5705
5519 5527 5538 5545 5553 5561 5571 5579 5588 5595 5602 5606 5610 5612 5613 5612 5610 5607 5603 5600 5594 5591 5584 5577 5573 5569 5566 5564 5563 5565 5567 5571 5576 5581 5592 5597 5607 5614 5626 5637 5644 5653 5666 5674 5680 5689 5700
5502 5510 5523 5534 5540 5548 5557 5565 5577 5584 5591 5597 5601 5604 5606 5605 5603 5600 5596 5592 5588 5584 5578 5572 5568 5564 5563 5561 5561 5563 5566 5572 5580 5583 5591 5598 5606 5615 5626 5637 5645 5651 5660 5670 5677 5688 5695
5483 5495 5510 5522 5529 5538 5546 5555 5566 5575 5582 5588 5592 5596 5598 5598 5596 5593 5590 5588 5582 5579 5572 5568 5564 5562 5560 5559 5559 5561 5566 5575 5580 5585 5591 5599 5609 5619 5627 5635 5643 5653 5663 5670 5676 5688 5694
5468 5485 5499 5510 5518 5529 5536 5545 5556 5565 5572 5579 5584 5588 5592 5591 5589 5587 5585 5581 5578 5574 5568 5565 5562 5559 5558 5557 5558 5563 5570 5577 5582 5589 5593 5602 5611 5618 5624 5630 5641 5646 5655 5669 5676 5683 5689
5457 5472 5487 5501 5509 5520 5527 5537 5547 5557 5564 5571 5577 5581 5584 5584 5584 5581 5579 5577 5575 5570 5565 5562 5560 5557 5556 5555 5558 5565 5572 5577 5583 5589 5596 5604 5608 5618 5625 5634 5643 5651 5661 5667 5674 5681 5685
5448 5465 5479 5491 5500 5510 5519 5529 5538 5549 5557 5564 5570 5574 5577 5578 5578 5575 5575 5572 5569 5565 5563 5561 5559 5557 5555 5556 5560 5566 5574 5580 5587 5594 5600 5606 5614 5620 5628 5636 5641 5647 5657 5665 5669 5675 5680
5440 5458 5471 5484 5494 5504 5511 5521 5531 5542 5550 5557 5564 5568 5572 5572 5572 5570 5570 5568 5566 5563 5560 5559 5558 5557 5556 5557 5562 5569 5574 5582 5590 5598 5603 5607 5615 5622 5631 5637 5644 5651 5658 5663 5669 5673 5679
5436 5451 5465 5477 5486 5497 5506 5514 5524 5535 5543 5550 5556 5562 5566 5568 5566 5566 5566 5566 5563 5559 5558 5557 5556 5556 5558 5559 5564 5569 5575 5583 5591 5598 5604 5610 5617 5624 5629 5633 5642 5647 5653 5658 5662 5670 5674
5433 5446 5459 5471 5480 5490 5500 5508 5518 5529 5536 5544 5551 5556 5559 5563 5562 5563 5563 5563 5561 5558 5557 5557 5556 5556 5558 5561 5571 5575 5579 5586 5593 5599 5606 5613 5620 5624 5629 5635 5641 5645 5649 5654 5660 5666 5669
5430 5444 5456 5467 5475 5483 5492 5502 5513 5523 5533 5540 5545 5550 5554 5557 5557 5560 5561 5561 5559 5558 5558 5557 5555 5557 5558 5562 5567 5574 5583 5590 5596 5603 5609 5615 5620 5624 5629 5633 5637 5641 5648 5652 5658 5663 5667
5429 5441 5451 5462 5470 5480 5491 5500 5508 5518 5527 5534 5540 5545 5549 5553 5554 5556 5558 5559 5558 5558 5559 5558 5556 5557 5561 5565 5570 5575 5581 5589 5596 5602 5606 5612 5617 5621 5625 5629 5633 5640 5644 5648 5650 5656 5660
5423 5435 5447 5458 5467 5477 5486 5495 5504 5514 5521 5529 5535 5540 5545 5548 5550 5553 5556 5556 5558 5558 5560 5559 5560 5560 5562 5568 5573 5575 5581 5588 5594 5600 5605 5610 5614 5618 5622 5627 5631 5637 5640 5642 5644 5651 5653
5420 5433 5444 5454 5463 5473 5483 5492 5502 5510 5517 5525 5530 5536 5540 5544 5548 5551 5553 5555 5557 5558 5561 5561 5562 5565 5565 5570 5575 5578 5581 5588 5593 5598 5602 5607 5611 5615 5618 5622 5628 5631 5634 5636 5639 5646 5647
5418 5430 5440 5450 5459 5469 5476 5483 5494 5504 5513 5520 5526 5531 5536 5540 5544 5548 5551 5553 5556 5558 5560 5561 5564 5566 5569 5572 5576 5580 5585 5589 5593 5597 5601 5604 5607 5612 5616 5619 5624 5627 5630 5632 5637 5644 5641
5415 5427 5437 5445 5454 5464 5471 5481 5488 5500 5509 5516 5523 5527 5532 5537 5541 5544 5548 5551 5553 5556 5558 5561 5564 5567 5571 5574 5577 5581 5585 5589 5593 5597 5601 5604 5606 5610 5614 5619 5623 5625 5627 5631 5634 5635 5637
5410 5421 5432 5443 5450 5459 5469 5478 5486 5496 5505 5512 5518 5524 5528 5534 5538 5541 5544 5548 5551 5553 5555 5559 5564 5567 5571 5573 5578 5581 5584 5588 5592 5595 5597 5600 5605 5609 5614 5617 5619 5621 5624 5625 5628 5631 5633
Wind_Speed
35 36 35 35 33 31 30 28 27 27 28 29 27 29 30 31 31 33 33 32 31 33 35 37 36 35 34 39 43 46 51 49 50 53 54 53 54 54 51 54 56 55 47 48 47 44 42
37 39 38 37 38 36 34 32 30 29 29 30 29 30 31 32 33 37 34 31 32 33 34 31 32 36 41 45 47 52 53 56 56 57 60 58 58 58 58 56 60 52 48 49 50 48 44
37 42 42 41 41 40 39 37 34 32 32 33 32 31 31 32 34 37 33 31 31 27 27 29 33 36 39 43 51 52 55 56 59 59 58 62 62 63 59 59 59 57 54 51 54 50 46
40 41 45 46 45 43 41 40 38 36 35 36 35 34 32 33 34 36 34 31 34 33 33 33 36 39 40 42 47 49 52 57 56 57 61 63 67 69 67 62 61 61 59 56 55 49 45
48 46 46 49 49 48 46 43 41 40 39 38 37 37 34 34 33 37 35 34 36 35 37 39 42 40 43 39 44 48 50 51 57 60 65 76 77 79 83 81 67 64 63 57 57 50 43
44 54 53 51 50 50 50 48 45 44 43 41 38 39 36 35 33 36 37 38 35 39 40 41 43 43 42 40 41 43 45 50 52 56 47 51 55 61 70 70 72 64 61 60 56 49 44
47 46 51 58 54 50 50 50 47 46 46 44 40 39 38 35 35 35 38 40 37 37 37 43 45 43 41 40 41 44 47 48 46 38 35 42 46 55 67 71 66 62 61 60 53 44 47
58 56 51 56 61 55 51 50 48 47 47 45 42 39 38 34 35 37 37 38 38 38 41 43 44 42 41 40 42 44 47 38 29 28 32 41 38 45 55 52 65 62 58 53 50 48 47
68 66 62 59 61 59 54 50 48 46 47 45 43 39 38 34 34 38 37 37 37 36 42 43 42 42 38 39 41 44 32 25 25 31 40 33 31 47 52 55 58 55 58 53 51 49 42
69 66 65 64 61 57 54 49 47 45 46 45 43 39 37 34 35 36 37 35 39 41 44 44 40 31 30 32 34 34 22 24 24 29 38 43 44 54 57 52 48 54 55 52 52 45 40
61 60 56 62 61 55 53 48 46 44 44 44 41 37 35 34 35 36 34 33 38 40 44 40 39 29 26 28 28 18 20 21 21 37 36 30 43 63 52 54 54 51 47 49 48 43 44
59 56 46 53 54 60 52 57 47 43 43 42 39 35 34 32 34 35 33 33 37 40 49 46 33 23 23 24 20 13 17 21 31 40 30 26 46 55 57 29 51 48 47 45 46 42 42
55 60 48 49 51 56 60 53 46 42 42 41 38 34 32 32 33 34 33 34 36 40 40 37 29 31 29 21 17 15 18 21 46 28 24 40 43 42 49 36 40 45 50 48 44 44 34
47 59 41 45 45 55 51 53 49 43 40 39 36 33 29 32 31 33 33 31 35 38 37 26 18 27 31 21 14 19 22 24 50 27 14 52 52 36 50 39 45 49 47 44 46 40 33
57 56 42 38 42 44 50 54 47 42 39 37 34 30 27 30 28 32 31 29 35 32 27 20 17 22 26 20 13 21 23 32 45 29 15 54 44 42 43 49 40 41 43 39 40 38 35
61 57 40 39 50 44 49 53 45 40 37 34 31 28 26 28 28 30 28 26 32 29 23 18 17 18 20 16 14 23 25 40 42 43 33 46 35 43 46 49 50 46 43 42 41 33 29
54 56 56 40 47 42 49 53 44 37 36 32 29 27 25 26 28 27 21 26 26 25 20 16 14 15 14 14 17 22 31 37 37 42 32 33 25 27 57 56 49 41 39 41 38 38 31
52 60 61 41 41 39 49 51 39 36 35 31 27 26 24 25 26 23 19 25 21 22 20 16 14 11 8 11 22 26 34 40 36 44 32 31 20 30 28 41 42 44 33 32 31 34 35
49 61 56 39 41 39 50 46 40 36 33 30 27 25 24 23 22 19 19 23 18 14 15 12 11 8 10 14 25 31 35 38 44 39 30 39 36 26 34 38 37 43 39 34 30 32 35
51 59 50 40 44 40 52 43 40 35 34 30 28 23 21 20 21 15 18 20 17 14 11 10 8 8 7 17 26 33 39 40 45 40 38 42 47 35 31 32 26 26 32 32 29 28 28
52 61 49 36 43 40 48 48 41 35 33 32 26 22 20 16 18 14 16 13 14 12 6 9 8 9 5 17 27 35 39 41 43 45 41 36 42 44 41 38 31 31 30 32 35 25 30
54 62 38 48 46 36 44 50 40 36 35 31 25 21 20 16 15 16 16 9 11 5 5 7 6 5 5 17 17 28 36 38 40 45 41 38 37 36 36 34 33 32 32 36 29 29 27
49 50 48 47 45 43 46 42 41 37 32 27 23 23 19 16 14 16 15 12 13 5 5 6 7 7 17 22 24 28 32 33 34 30 34 31 29 32 34 31 31 32 35 36 30 26 27
52 56 49 51 47 46 40 43 45 36 32 29 25 23 19 15 13 15 14 12 8 4 2 2 9 25 23 24 23 27 32 33 31 23 25 30 31 27 34 31 31 27 28 33 35 35 35
57 48 57 50 45 43 48 42 38 37 33 30 26 24 19 15 14 17 17 10 9 5 6 6 12 21 27 29 24 33 31 31 29 27 23 24 31 29 28 29 29 25 27 29 34 33 34
63 54 55 49 45 42 44 41 44 38 35 31 28 25 20 17 16 19 17 13 13 12 12 13 12 23 24 27 30 31 31 27 28 29 26 26 24 23 23 23 20 21 24 28 30 25 27
61 57 54 53 47 34 39 43 46 41 37 33 29 26 21 18 18 21 18 17 14 17 16 19 17 17 22 27 29 26 23 21 23 23 25 24 24 23 22 21 19 18 21 23 22 18 22
61 60 56 51 42 37 42 43 47 40 38 34 30 26 21 19 20 23 24 20 18 18 23 24 20 20 20 23 23 23 23 21 22 22 19 21 26 26 23 20 15 16 17 19 16 20 21
59 61 55 48 43 38 36 46 42 41 38 35 31 26 22 20 21 25 23 21 19 17 23 25 24 21 20 21 21 28 28 26 25 23 23 25 25 24 23 14 16 17 16 18 21 20 19
Wind_Direction
258 258 257 259 260 262 262 263 267 272 283 292 298 297 302 294 292 293 282 278 279 276 274 276 271 267 266 267 269 262 261 256 251 249 246 244 241 242 241 239 239 238 239 236 237 237 242
256 255 257 260 262 263 264 265 268 270 280 290 297 297 299 299 291 296 285 280 277 277 277 275 275 273 272 274 271 266 257 253 251 250 249 248 242 240 238 238 237 240 235 235 234 237 239
264 257 254 257 260 263 264 267 268 270 277 286 293 296 299 301 293 299 285 282 279 274 276 281 277 278 280 282 270 260 256 257 256 252 249 246 243 239 236 238 237 237 231 231 231 232 235
266 263 257 255 257 258 263 265 267 270 274 282 290 294 299 301 297 301 287 279 279 276 282 286 290 284 288 276 265 259 257 257 256 262 263 255 242 240 238 239 235 233 230 227 228 229 231
266 265 263 258 254 257 258 261 266 268 272 278 286 291 297 301 304 300 288 283 284 281 282 289 292 288 291 280 266 262 264 264 266 268 266 266 256 249 238 237 231 227 227 225 226 229 228
276 265 261 260 258 256 254 256 260 266 269 275 282 288 294 301 307 299 294 283 285 282 285 289 291 294 294 281 273 268 268 274 277 278 255 241 240 230 216 215 216 225 224 224 223 228 227
280 277 267 257 257 257 257 253 254 259 266 271 278 285 291 299 306 301 295 285 292 287 287 290 294 296 294 287 277 273 277 280 278 248 238 233 221 221 201 208 214 222 220 223 223 226 225
276 273 269 262 253 255 256 253 249 254 259 267 274 281 288 296 304 301 295 289 295 294 291 294 299 299 292 283 279 278 280 278 248 235 226 220 230 212 187 195 206 216 217 218 222 224 224
271 271 267 258 254 250 251 252 248 248 254 261 269 278 285 294 302 302 297 289 293 294 295 297 305 301 284 279 277 278 278 247 228 222 219 210 192 193 188 198 203 210 213 214 219 223 223
265 260 256 252 248 246 244 246 247 244 250 256 265 274 283 292 298 301 297 290 293 292 295 304 310 299 291 283 282 272 254 230 225 218 217 200 180 181 193 189 192 207 211 211 217 219 223
253 247 258 256 240 237 237 241 242 242 246 253 262 271 280 288 296 301 296 287 293 295 297 310 317 300 292 291 278 267 227 220 217 202 201 188 179 184 172 200 201 204 210 211 216 218 223
242 234 250 246 240 235 237 237 237 238 242 250 259 268 278 286 293 297 295 283 292 294 301 311 315 300 291 289 267 237 225 217 199 195 202 166 185 189 198 185 192 196 205 210 214 216 220
241 231 246 240 236 236 236 236 231 233 238 247 256 265 275 283 292 295 293 284 291 295 311 315 316 307 301 279 267 207 207 215 194 195 207 173 178 183 202 201 181 193 200 205 211 214 209
227 235 230 239 232 233 234 238 226 229 234 244 253 261 272 280 292 290 291 284 292 300 314 304 306 306 301 277 262 198 200 204 193 192 182 173 174 180 194 195 196 192 202 210 213 210 211
218 231 228 230 236 242 226 227 220 226 231 240 248 258 270 277 290 288 290 291 297 310 303 290 290 294 292 281 223 206 198 187 187 186 196 186 174 180 177 196 204 194 197 203 210 209 215
218 218 213 216 235 239 233 222 215 222 227 234 243 254 266 275 285 287 291 294 297 312 296 294 282 289 302 288 223 197 191 177 182 186 200 188 154 185 193 198 201 203 206 207 212 210 214
220 211 217 212 230 230 231 212 210 218 223 228 237 250 261 273 283 287 292 288 300 311 294 298 298 298 299 283 202 185 179 175 191 192 186 181 172 195 191 199 195 188 197 204 211 215 212
214 203 213 204 221 221 229 210 206 214 218 223 232 247 257 269 281 289 282 288 305 317 297 285 298 287 267 225 186 176 177 179 184 194 188 168 148 191 184 194 206 215 207 205 214 214 217
210 204 202 193 210 220 224 213 202 210 214 220 230 241 253 265 278 278 276 283 303 307 286 295 301 262 282 193 178 173 179 182 184 179 184 182 184 167 187 201 212 206 202 200 211 214 217
203 201 196 196 207 219 217 205 201 206 212 218 226 235 247 266 273 270 272 283 311 302 303 284 294 234 359 184 176 177 179 178 180 180 181 188 187 191 189 193 203 205 209 219 222 227 221
201 198 195 206 212 215 211 206 198 204 209 216 221 230 239 251 267 256 262 295 333 292 256 279 280 241 320 182 183 180 182 181 182 188 191 189 191 203 212 217 211 214 218 229 226 221 217
200 201 198 197 203 218 204 204 193 204 208 212 217 225 235 242 259 241 261 295 307 279 312 320 275 276 284 162 172 185 179 183 189 191 196 200 204 210 213 220 224 217 217 224 212 217 219
195 197 198 187 199 215 202 193 195 202 207 209 213 223 230 237 247 233 242 272 312 246 308 314 233 182 153 150 155 175 189 192 191 200 205 207 213 215 220 220 224 228 225 225 237 232 232
184 191 194 189 203 208 207 201 197 197 203 207 210 219 224 228 234 223 234 253 266 225 216 296 170 158 148 143 157 169 179 189 192 200 214 217 221 225 220 221 225 224 228 236 240 236 239
180 178 183 187 202 206 212 211 204 198 200 207 208 215 218 220 222 213 222 248 206 175 174 160 173 165 153 147 179 166 168 178 189 195 201 214 219 227 229 228 236 238 239 237 236 239 244
189 189 183 186 201 205 209 211 204 207 207 205 206 211 212 212 216 210 214 227 205 189 188 184 155 172 167 167 164 171 175 180 188 194 200 199 205 215 222 228 231 226 228 232 237 237 239
187 187 181 188 198 199 205 208 210 205 202 203 204 209 209 209 213 204 209 227 227 212 188 198 190 163 168 171 176 183 180 187 196 198 198 206 208 214 219 219 205 211 221 226 232 228 237
190 187 180 193 204 202 205 204 197 194 200 200 202 205 206 206 210 206 209 218 229 222 204 183 195 185 188 188 193 196 194 201 204 200 210 229 225 211 204 200 198 215 225 231 226 224 231
185 184 187 193 201 202 202 192 187 192 198 197 199 202 206 205 212 206 213 220 228 223 218 203 199 198 197 201 205 204 204 208 205 212 217 215 208 219 223 220 225 232 228 236 238 235 247